Theta_e
312 312 312 312 312 312 312 311 311 310 310 309 309 309 309 309 310 313 314 314 314 314 315 315 316 316 317 315 314 314 313 306 304 302 302 306 313 321 324 326 327 325 325 312 310 307 304 306 307 308 305 305 305 303 308 309 307 303 295 292 290 291 292 296 296 297 299 299 301 303 304 304 303 306 310 311 310 311 334 335 337 338 337 339 339 342 343 343
311 311 311 311 311 311 311 312 311 310 310 309 309 309 309 309 310 312 313 314 314 315 315 315 315 316 316 316 315 314 310 306 302 302 302 311 320 321 323 328 328 329 316 305 305 305 302 303 307 308 304 302 308 303 308 304 309 299 295 293 292 294 296 300 300 301 300 299 302 304 305 305 305 305 309 307 307 312 330 333 335 334 336 338 340 341 341 341
311 311 310 311 311 311 311 311 311 311 310 310 309 309 309 309 309 312 312 312 313 314 315 315 315 315 315 316 316 314 308 302 302 299 306 328 324 322 323 324 326 325 308 305 305 305 303 304 306 306 303 300 303 301 305 303 305 302 296 292 294 298 299 301 303 303 303 304 303 305 305 305 305 305 309 308 305 313 328 328 331 331 332 335 337 339 340 339
310 310 311 310 310 311 311 311 311 311 311 310 310 309 309 310 310 311 312 312 312 313 314 315 315 315 315 315 315 311 305 301 297 304 311 325 326 326 325 327 327 324 310 306 306 305 306 305 305 304 302 300 301 304 300 303 300 301 299 295 296 300 298 301 304 304 304 305 303 304 306 304 305 305 308 305 302 305 329 334 332 331 333 335 337 339 340 338
310 310 310 310 310 310 311 310 310 310 311 310 310 310 309 310 310 310 311 311 312 313 314 314 314 314 315 315 313 308 302 293 297 307 316 323 330 328 328 325 327 316 309 307 306 305 304 303 304 304 301 296 300 301 300 303 305 302 299 301 301 301 299 303 304 305 304 304 303 304 303 304 308 306 311 310 306 301 308 336 336 336 336 336 337 339 340 339
310 310 310 310 310 310 310 310 310 310 310 310 310 310 310 309 310 310 310 311 311 312 313 314 314 314 314 314 310 306 299 285 304 306 316 322 326 329 328 329 327 316 310 306 303 303 302 302 302 299 298 297 298 296 300 302 305 297 299 301 302 303 301 304 304 305 303 304 302 301 304 305 305 304 305 307 307 324 337 339 339 338 339 339 340 340 339 338
310 309 309 309 309 310 310 310 310 310 310 310 310 310 310 310 309 310 310 310 311 312 313 313 314 314 314 313 308 304 297 298 305 312 324 318 325 328 326 327 330 320 311 305 303 301 301 300 301 300 299 298 298 298 301 302 304 300 297 300 302 304 302 305 304 304 303 302 302 304 305 303 303 300 315 325 331 336 338 340 339 340 341 341 338 339 338 338
309 309 309 309 309 309 310 310 310 310 310 310 310 310 310 310 310 310 310 310 310 311 312 313 313 314 314 308 301 297 296 297 305 310 321 326 324 324 326 321 321 317 310 304 302 300 300 299 298 302 299 296 298 299 301 300 302 299 298 301 303 304 304 305 304 304 303 303 302 305 303 301 303 304 316 324 329 329 328 329 327 327 328 333 338 338 338 338
309 309 309 309 309 309 309 309 309 309 310 310 311 310 310 310 310 310 309 310 310 310 312 312 313 313 313 307 299 294 294 304 309 311 316 318 311 310 313 308 316 312 308 306 305 302 300 298 300 301 296 298 301 299 300 298 295 300 300 302 303 303 304 303 304 304 303 306 305 303 302 303 304 312 321 324 325 327 328 329 329 329 326 324 324 324 328 329
309 309 309 309 309 309 309 309 310 310 310 310 310 310 310 310 309 310 310 309 309 309 310 312 313 312 308 303 299 290 300 309 310 310 309 309 309 307 306 305 305 309 307 304 304 303 300 299 300 303 302 300 303 299 301 299 296 302 301 302 302 303 304 305 303 303 303 303 303 301 300 301 304 303 311 327 327 328 327 327 328 327 325 326 327 328 328 326
308 308 308 308 309 309 309 309 309 309 310 310 310 310 310 310 309 309 309 309 309 309 309 311 312 311 304 303 294 290 307 307 309 308 309 308 307 306 305 305 304 303 305 306 303 304 304 303 303 303 301 297 301 300 300 300 303 302 302 302 301 302 303 304 304 303 302 301 303 303 300 301 303 302 308 323 327 327 324 324 324 324 325 326 327 328 326 326
307 308 309 308 308 309 308 309 309 309 309 310 309 309 310 310 309 309 309 309 309 309 309 311 311 308 305 300 295 296 308 307 308 308 308 308 305 307 308 307 305 303 303 305 305 305 304 304 304 301 293 302 295 300 299 303 301 301 301 296 299 301 300 302 302 303 303 302 304 303 301 299 302 316 323 326 326 325 324 322 323 322 323 324 326 326 326 326
308 308 308 308 309 308 308 309 309 309 309 309 309 309 309 309 309 309 309 309 309 309 309 309 310 308 302 293 297 306 308 308 308 308 308 308 307 308 308 308 307 305 304 302 304 307 305 304 303 299 301 299 298 294 302 303 301 301 299 297 296 296 297 301 303 303 301 303 304 303 289 294 316 321 323 325 324 323 322 321 323 324 325 326 326 324 325 328
308 308 308 309 309 309 309 309 308 309 308 309 309 309 309 309 309 309 309 309 310 309 309 309 308 305 299 293 301 306 307 308 308 306 306 308 306 305 307 308 307 306 305 303 304 306 307 305 303 302 304 299 296 304 301 300 301 295 297 297 289 289 289 299 301 301 299 304 304 302 290 300 318 321 323 325 324 321 319 321 322 323 323 324 325 325 325 325
309 309 308 308 308 309 309 308 309 309 308 308 308 308 308 308 309 309 309 309 309 309 309 309 307 301 295 295 305 307 311 308 304 304 307 305 303 303 304 306 305 305 304 304 304 307 308 306 303 299 296 302 301 297 294 295 296 295 292 289 290 290 291 298 301 301 297 302 304 300 291 305 319 320 324 325 324 321 318 320 321 320 319 321 322 323 323 324
309 309 309 308 308 308 309 309 308 308 308 308 308 308 308 308 308 309 309 309 309 309 307 300 299 300 294 289 298 312 304 300 302 306 307 307 305 301 304 304 305 304 303 303 306 306 306 306 300 298 298 299 296 292 291 290 290 293 291 288 288 290 291 295 300 302 302 301 302 300 291 314 316 322 323 324 323 321 318 317 317 319 320 319 319 320 321 325
309 309 309 309 308 308 308 308 308 308 308 308 307 307 308 308 308 308 309 309 306 307 304 297 299 301 287 300 306 298 298 301 306 305 307 308 306 305 303 302 301 301 302 303 304 304 303 301 303 300 299 294 293 293 287 286 286 288 291 286 291 290 292 290 296 300 301 301 296 300 296 314 318 321 321 322 321 319 318 317 317 319 319 319 319 321 323 325
309 309 309 309 308 308 308 308 308 308 308 307 307 306 305 308 309 307 305 305 306 304 302 303 300 296 291 300 291 295 301 301 304 305 305 308 308 305 302 300 301 300 300 299 301 298 301 296 300 292 292 292 292 290 286 284 287 286 287 287 289 292 293 293 293 297 300 301 298 296 297 315 317 319 319 320 320 318 317 317 317 319 319 319 320 320 322 323
308 308 308 308 308 308 308 308 308 308 308 308 307 308 309 310 308 305 300 300 297 292 286 289 291 282 282 293 299 300 301 303 305 305 303 304 307 306 304 303 301 297 294 294 295 296 297 295 297 290 287 289 289 290 289 291 293 291 291 290 291 289 291 292 297 299 300 297 297 295 297 314 316 317 319 319 318 316 316 317 317 318 318 319 319 319 319 323
308 308 308 308 308 308 308 308 308 308 307 304 302 300 298 294 295 293 298 298 293 292 291 293 295 294 295 295 295 299 304 306 299 301 302 304 304 302 300 300 297 296 294 290 293 294 297 289 288 289 289 291 292 293 294 296 296 295 294 293 292 292 293 297 298 299 301 298 296 296 309 315 315 316 318 318 318 316 316 316 316 317 317 318 318 318 319 323
308 308 308 308 307 307 307 307 307 308 307 304 301 296 288 290 285 284 290 293 296 296 294 294 294 294 293 297 298 298 295 297 301 300 301 305 302 299 295 295 292 289 292 294 292 296 295 288 289 293 293 292 293 294 294 295 296 294 293 292 291 293 291 296 298 299 301 297 295 299 313 313 315 317 318 319 317 315 316 316 317 317 317 317 318 318 320 322
308 308 308 307 307 307 307 307 307 307 307 303 299 294 295 295 298 301 295 286 293 296 296 296 297 294 298 298 300 300 299 294 295 299 303 303 299 292 292 292 290 288 293 294 293 290 288 287 291 295 296 294 294 294 295 295 294 294 292 292 291 292 295 297 298 299 300 298 293 311 310 311 315 317 318 317 317 318 320 319 318 318 317 317 318 319 321 322
307 308 308 307 307 307 307 307 307 306 302 298 296 296 295 300 303 303 298 293 289 295 294 294 293 294 294 298 299 300 293 292 290 297 300 301 296 295 294 290 290 291 293 293 288 287 284 288 293 297 296 293 293 294 294 294 295 292 291 288 289 293 292 289 296 297 300 298 301 310 308 310 315 317 317 319 319 319 320 320 319 319 318 317 318 322 321 322
307 307 308 307 307 307 307 307 306 302 299 299 298 297 302 304 304 301 295 283 284 291 293 294 294 294 294 293 298 296 292 292 295 294 303 299 294 296 293 292 290 291 290 292 291 289 288 292 296 296 295 293 291 293 293 292 290 293 293 291 291 293 294 293 293 296 300 309 312 309 305 304 308 309 311 314 319 320 319 319 319 319 319 321 323 326 325 323
307 307 308 308 307 308 306 306 299 298 301 300 298 303 303 303 304 302 291 286 286 287 297 295 296 295 297 303 301 293 294 294 295 299 301 299 296 294 291 295 292 289 291 293 292 291 292 295 297 295 294 293 292 291 293 292 289 290 294 294 294 295 294 295 296 294 294 301 308 307 293 295 303 307 308 310 314 316 318 316 316 317 318 321 322 323 325 325
307 307 307 308 307 306 306 298 298 300 298 296 299 302 303 303 304 303 292 279 275 284 292 284 296 289 301 294 297 294 295 288 297 299 301 301 302 295 294 290 293 287 291 292 291 291 293 296 295 293 293 292 292 291 294 294 290 288 291 296 296 296 295 294 294 293 287 294 304 307 294 288 302 304 306 309 311 313 315 315 315 316 318 319 320 321 321 320
307 307 307 307 307 306 296 290 300 299 294 296 302 303 303 304 304 300 284 276 272 286 282 291 289 290 298 295 295 295 280 284 298 299 299 303 298 301 290 288 292 293 295 296 291 289 295 294 293 293 292 291 291 290 293 294 291 288 296 296 297 295 294 294 295 293 290 304 307 303 300 294 294 301 308 310 310 311 312 314 314 315 317 318 318 319 319 320
307 307 307 307 306 304 298 299 298 295 296 300 303 303 304 304 303 297 283 268 269 290 283 287 290 299 295 296 296 290 289 295 288 293 299 301 300 297 293 289 289 290 293 292 283 293 295 292 292 291 292 291 290 292 294 296 292 292 296 297 295 296 295 295 293 291 293 301 294 296 304 292 291 299 309 310 307 309 309 312 314 315 317 318 318 317 320 323
307 307 307 307 306 306 303 299 297 295 301 303 304 304 304 305 299 285 275 267 285 285 301 286 299 294 292 295 292 292 291 293 287 294 298 299 300 297 289 291 292 292 293 293 288 292 295 295 294 294 292 289 293 295 295 296 292 296 298 298 298 297 297 296 293 292 293 294 288 294 300 290 291 300 305 308 306 306 309 312 314 316 317 318 318 318 319 320
307 306 306 306 305 302 301 302 298 302 304 304 304 304 303 297 288 275 270 266 290 279 291 292 289 286 291 287 288 291 288 290 292 294 296 293 296 298 296 299 293 292 291 293 293 294 296 300 299 295 292 294 294 295 297 296 297 299 298 295 295 295 293 294 295 292 291 283 287 296 298 295 287 298 303 302 304 308 310 312 314 316 316 317 318 318 318 318
307 306 306 306 300 301 300 296 302 305 305 305 304 302 298 291 279 272 267 275 286 284 292 289 286 292 288 285 284 289 289 289 290 291 290 294 293 295 294 291 295 290 289 290 290 294 295 296 295 296 299 298 297 295 298 298 298 297 294 292 290 290 292 290 290 292 284 282 290 294 295 297 286 294 303 308 310 311 312 311 312 312 314 315 316 317 318 318
306 306 306 304 304 304 296 295 303 306 305 304 301 295 289 277 280 270 272 291 275 281 282 283 288 287 288 289 288 287 285 288 290 289 288 288 288 287 288 283 287 280 281 284 285 292 291 292 295 296 301 297 295 293 294 296 296 295 293 291 285 282 283 281 284 282 282 281 289 294 296 293 289 297 305 308 308 311 313 314 314 313 313 314 315 317 318 319
305 305 307 305 305 302 302 303 306 306 305 303 298 292 281 275 269 276 275 281 273 286 282 288 285 287 287 287 285 287 289 284 289 289 291 290 288 288 291 289 291 288 280 286 286 286 287 293 294 295 296 299 297 290 289 289 292 292 291 286 285 279 280 276 280 282 281 290 295 294 296 288 293 299 308 307 309 312 314 316 316 314 313 313 315 316 318 318
305 306 302 304 304 305 305 306 306 305 303 300 293 286 281 273 272 286 280 281 280 289 289 286 287 287 287 283 285 288 283 288 288 287 289 287 287 284 288 290 291 290 289 287 283 285 280 283 289 293 290 298 296 295 293 291 291 292 294 291 285 285 283 277 280 277 280 284 291 298 290 284 288 292 309 310 311 313 315 317 317 315 315 315 317 318 318 319
305 304 304 305 304 305 306 307 306 305 302 296 287 282 275 274 278 277 278 282 284 287 285 290 285 285 284 286 288 289 288 283 288 288 287 286 283 285 285 287 290 291 291 283 288 285 286 286 292 297 296 298 295 298 298 295 292 294 294 295 288 285 288 281 284 285 286 283 286 289 285 294 294 304 308 311 312 314 316 316 316 315 315 316 316 315 316 320
303 302 306 302 302 304 306 307 306 305 299 291 283 278 275 278 274 281 279 288 287 284 285 287 286 282 283 283 287 286 291 287 288 288 286 287 288 286 290 290 290 292 289 283 288 283 288 285 294 296 297 297 296 298 297 298 284 291 292 286 289 295 294 285 287 292 283 284 281 285 292 298 301 303 308 310 311 313 315 315 315 314 314 315 314 316 318 321
299 302 299 302 302 306 306 305 306 302 298 289 282 276 282 284 286 285 289 286 286 288 285 279 281 281 280 280 282 285 287 289 288 287 281 288 285 289 290 291 295 294 294 291 288 292 283 284 294 294 292 297 299 299 298 298 296 292 286 290 296 298 298 288 280 284 282 279 281 291 289 291 293 287 301 307 308 311 312 313 314 314 314 313 315 317 319 320
299 300 301 301 304 305 305 305 303 299 294 286 280 283 287 282 290 289 292 288 289 289 284 282 283 287 281 280 281 285 288 284 285 286 282 286 282 293 291 291 296 296 296 297 288 290 292 283 290 294 294 295 298 296 295 296 298 291 292 297 291 282 283 289 284 279 279 279 279 285 293 292 292 294 300 302 305 308 311 312 313 312 313 314 316 318 319 320
300 299 294 300 304 305 305 305 302 297 289 282 281 280 284 286 291 291 291 291 291 288 283 285 282 285 285 280 284 286 288 282 287 284 281 284 280 290 291 294 294 297 297 296 292 292 294 284 286 294 292 294 294 292 282 288 294 297 297 295 296 291 288 283 283 285 284 279 279 280 290 283 295 298 302 302 304 309 310 311 312 313 314 315 316 317 318 319
298 295 292 302 305 307 308 306 298 292 284 279 282 282 289 285 290 292 292 292 289 287 285 285 287 284 287 286 287 284 288 287 286 285 285 285 285 293 290 295 295 296 297 298 295 297 287 293 281 289 294 293 285 290 286 287 286 290 289 288 292 293 295 292 292 288 283 279 280 279 280 285 295 303 304 304 307 309 311 311 312 314 315 316 317 317 318 319
299 294 294 303 306 307 305 298 289 284 283 285 287 285 287 286 289 290 292 294 291 295 289 288 287 284 287 286 286 289 287 288 287 284 286 286 286 283 292 293 295 294 298 297 295 295 287 288 283 288 289 286 288 293 293 293 292 289 288 287 288 287 285 282 281 294 291 284 280 281 279 285 299 307 305 307 309 310 312 312 313 313 315 316 316 317 317 317
294 287 293 304 305 304 296 286 286 287 285 283 283 286 285 293 289 290 292 294 293 290 295 291 290 289 288 288 288 288 288 287 288 287 288 284 289 289 293 296 295 296 295 290 292 303 297 293 287 283 286 288 292 295 297 297 296 293 292 289 292 289 289 283 279 283 290 288 292 286 281 286 298 305 306 311 312 312 313 314 313 314 315 315 316 317 317 317
294 290 304 304 304 302 293 285 288 286 284 288 293 291 293 290 289 291 291 294 290 292 290 290 290 290 292 290 290 290 289 286 288 287 288 289 290 292 296 296 296 295 298 294 296 299 308 289 285 286 289 291 294 295 296 296 295 293 293 293 294 290 290 287 284 286 285 287 285 284 281 286 299 307 307 312 313 314 315 314 313 313 314 315 316 316 316 316
294 294 298 305 305 302 291 283 283 285 287 291 291 290 294 292 292 290 288 292 292 291 290 292 293 294 290 294 293 290 291 282 290 289 288 291 290 297 296 296 297 294 296 293 292 299 289 291 287 280 281 283 286 289 289 294 293 290 288 291 293 294 294 293 295 292 285 288 288 282 279 284 298 308 309 310 311 311 313 314 315 313 313 314 315 316 316 316
294 297 298 300 302 301 287 290 285 284 286 286 287 287 290 292 294 293 292 291 295 294 294 292 295 296 294 295 293 293 292 290 287 291 291 291 293 298 297 296 298 296 299 306 310 302 291 290 287 279 277 274 275 277 280 282 286 289 294 292 292 292 292 291 283 285 282 287 290 283 285 293 300 305 308 309 310 310 312 314 315 315 313 314 315 315 315 316
293 285 294 296 298 297 294 297 292 286 285 286 285 289 291 290 295 297 296 295 298 297 295 295 297 297 294 294 291 291 290 293 291 292 290 290 293 295 297 297 297 298 305 313 306 299 293 298 292 287 282 279 282 288 293 293 290 285 290 291 293 293 293 293 288 283 281 286 286 289 294 294 297 301 306 308 310 310 311 313 313 313 313 315 315 315 315 315
296 288 288 285 293 294 292 294 292 288 285 290 284 290 288 291 293 296 299 292 299 296 296 296 296 292 291 292 291 291 292 292 293 292 292 292 294 294 297 298 299 303 313 308 308 298 295 289 292 295 296 292 291 291 293 292 290 291 291 291 291 291 293 292 284 283 290 287 283 294 298 296 296 300 304 307 309 311 312 313 313 313 313 314 315 315 313 315
288 291 294 296 288 285 286 287 293 288 289 291 287 292 289 290 292 287 296 298 298 298 293 295 296 295 293 292 292 286 290 290 292 289 295 295 294 295 294 297 299 308 306 301 303 299 294 285 291 293 293 294 295 293 292 292 291 291 291 292 291 292 292 289 289 292 291 282 282 294 298 296 297 298 302 304 308 310 312 313 314 314 315 315 314 314 313 313
296 294 294 297 288 291 291 291 293 291 289 290 288 290 289 291 291 292 293 291 296 295 297 284 291 295 297 297 293 291 293 285 284 294 294 293 296 293 290 294 299 304 300 297 297 299 293 286 294 295 292 294 295 294 293 291 290 292 291 291 293 292 292 293 294 296 293 290 294 299 297 297 300 299 303 305 310 312 313 314 314 314 314 314 314 313 313 313
291 290 290 296 294 292 292 293 294 295 288 292 285 289 292 292 292 295 296 293 287 293 298 293 295 296 298 297 295 293 296 296 295 288 296 294 293 293 292 294 292 297 298 296 299 300 292 284 295 295 291 293 297 298 293 292 291 289 291 291 292 292 292 293 293 294 294 294 296 299 297 296 298 306 310 312 313 314 313 312 312 313 313 313 313 313 312 312
297 299 299 292 288 291 293 293 294 294 289 290 286 290 293 294 293 295 296 299 295 294 296 294 297 297 299 298 298 297 300 298 300 300 299 297 286 297 291 294 296 292 296 296 296 300 296 288 297 294 286 287 297 295 297 296 292 290 289 290 291 291 290 292 288 292 292 291 294 296 292 293 297 310 312 313 313 312 311 311 311 312 313 312 311 311 311 311
298 301 301 296 288 292 290 293 295 293 287 293 294 294 289 291 296 297 290 299 301 300 299 299 300 297 297 298 298 299 301 302 301 302 301 301 298 296 296 296 296 293 292 295 295 292 292 291 286 285 282 284 293 294 296 295 292 286 284 290 294 294 295 295 295 296 295 295 289 285 287 292 303 310 309 310 312 312 311 312 311 312 312 312 311 311 311 311
Wind_Speed
16 16 16 15 15 15 15 14 13 13 13 13 13 14 15 15 15 16 16 16 15 16 16 17 17 18 18 20 18 19 18 12 16 13 11 18 14 11 16 8 6 6 1 3 4 5 7 7 8 8 7 5 4 7 6 7 4 4 6 6 9 6 8 4 7 6 4 9 8 13 5 4 1 2 0 1 5 2 13 11 10 13 10 14 14 19 19 16
16 16 16 16 16 16 16 16 14 14 13 14 12 13 14 15 15 15 16 16 16 16 16 16 17 17 18 19 20 18 14 14 15 16 18 16 11 15 18 7 7 5 4 3 5 6 7 7 8 9 8 6 3 5 5 3 6 7 4 7 12 6 6 6 7 12 12 7 12 1 3 2 0 2 1 1 4 8 12 8 13 15 17 18 19 18 16 16
16 16 16 16 16 16 16 16 16 15 14 13 14 13 14 14 15 15 15 16 16 16 16 16 16 17 17 18 18 16 14 16 14 15 15 6 17 21 19 13 7 7 4 4 5 8 9 9 7 10 7 5 6 7 8 6 6 8 6 8 9 5 7 12 13 13 10 16 2 1 2 2 3 3 1 0 4 8 13 11 13 18 16 19 18 15 14 15
16 16 16 16 16 16 16 16 16 16 16 15 14 14 13 14 14 15 15 16 15 16 16 16 16 17 17 18 16 13 12 14 9 5 1 4 8 7 9 8 8 6 2 4 6 7 7 11 11 7 7 9 5 9 8 8 6 4 8 8 5 9 10 11 16 13 15 12 3 4 1 2 5 3 1 2 1 2 11 16 21 18 20 19 19 17 14 14
17 16 16 16 16 16 17 16 16 16 16 16 15 15 13 12 13 14 15 15 16 16 16 16 15 16 16 16 15 10 13 7 2 3 2 3 7 10 10 8 8 4 5 3 5 8 9 11 8 7 7 8 9 7 10 9 9 4 11 12 7 5 9 15 17 15 15 12 4 7 9 6 1 4 1 4 1 3 4 8 17 22 24 24 21 17 15 14
17 17 17 17 16 17 17 16 17 16 16 16 16 15 15 13 13 13 14 14 16 16 16 16 15 14 15 15 11 9 5 4 3 4 5 2 4 9 9 10 11 6 5 6 6 5 7 8 8 6 3 6 11 11 8 10 11 11 7 9 13 13 11 7 10 17 9 4 3 4 1 1 0 1 3 8 5 1 11 18 16 20 16 16 16 17 16 14
16 17 17 17 17 17 17 17 17 17 16 16 16 16 15 15 14 14 13 14 14 15 17 16 15 15 14 14 11 10 8 12 10 2 2 7 6 8 9 8 7 5 6 7 9 7 8 10 8 9 6 8 9 12 10 10 12 11 9 6 11 13 16 15 17 15 10 5 2 3 4 2 1 3 11 15 12 14 16 16 16 14 16 15 14 13 16 14
17 17 16 16 17 17 16 17 17 17 17 17 17 16 15 15 14 14 13 13 14 14 16 16 14 13 11 9 9 5 8 13 16 14 15 8 6 7 6 7 8 6 6 9 8 11 7 10 11 7 8 8 6 10 10 12 13 14 12 10 8 10 12 15 18 14 8 7 3 3 3 4 3 1 8 8 13 15 15 18 20 14 15 11 6 9 10 8
16 17 16 17 17 17 17 17 17 17 17 17 17 17 16 15 15 14 14 13 13 14 15 15 15 12 9 6 8 11 13 13 15 13 7 6 6 8 7 5 10 7 6 7 10 9 8 8 9 9 4 8 8 12 10 10 10 13 13 10 9 9 8 9 16 16 9 1 1 2 2 2 5 12 11 3 8 10 16 18 16 19 16 7 8 12 12 7
16 16 17 17 17 17 17 17 17 17 17 17 17 16 17 16 15 15 14 14 13 14 14 15 15 12 8 6 8 10 10 10 12 10 20 17 16 9 6 7 4 8 8 8 8 11 11 7 8 7 12 13 9 8 9 13 6 7 13 11 10 11 13 11 12 11 9 5 6 5 4 3 6 5 4 2 6 14 17 14 11 15 13 11 9 9 6 9
16 16 16 17 17 17 17 17 17 17 17 17 17 16 16 17 15 14 14 15 15 13 14 15 14 10 8 8 10 15 6 13 6 14 16 18 13 10 8 7 5 6 10 8 11 11 10 11 9 7 8 6 5 8 10 8 11 13 9 15 15 10 9 10 14 15 7 6 11 8 3 3 1 3 7 7 5 12 17 13 13 15 12 11 9 8 9 8
16 15 15 15 16 17 17 17 17 17 17 17 17 17 17 17 17 15 15 13 14 14 14 14 14 7 9 11 13 18 11 15 17 15 14 16 13 13 13 10 9 9 7 8 11 10 11 11 11 10 5 2 9 8 11 11 8 10 15 10 13 18 13 12 16 14 7 2 6 4 1 1 1 6 5 8 8 13 17 14 14 14 11 10 11 11 8 9
15 16 16 15 15 16 16 16 17 16 16 16 17 17 17 17 17 17 15 15 12 14 14 15 12 6 9 12 14 15 18 18 17 17 14 12 12 12 11 12 11 11 10 10 8 10 11 11 12 12 13 11 8 6 3 4 9 10 9 8 7 9 15 16 12 12 7 4 3 7 2 0 5 6 7 7 8 12 15 14 13 11 10 8 9 8 6 5
16 16 16 16 16 16 16 16 17 17 16 16 16 17 17 17 18 18 17 16 15 14 14 16 8 8 8 13 6 10 13 13 17 18 16 13 13 13 11 11 11 9 7 9 11 7 8 11 12 11 10 11 8 7 14 8 6 11 9 6 6 8 5 10 12 7 11 5 5 7 5 3 4 6 5 6 8 14 12 10 11 11 9 8 8 9 8 8
19 18 17 17 17 16 17 17 17 17 16 17 17 17 17 17 17 18 18 16 15 14 14 12 6 6 8 11 10 19 27 21 17 19 16 15 12 12 12 11 12 12 9 8 8 6 6 8 12 11 9 7 11 12 11 7 5 6 7 11 5 8 3 5 9 10 11 3 9 6 6 6 9 5 5 5 4 13 12 8 9 10 10 9 8 10 9 7
19 19 20 18 18 17 17 17 17 17 16 17 17 17 18 19 17 17 17 14 16 15 9 8 8 7 9 13 8 10 10 12 17 20 17 15 14 13 10 11 10 10 10 8 7 7 8 6 9 9 8 8 11 8 7 6 7 6 9 6 8 8 5 3 9 10 13 4 10 11 3 10 3 5 7 7 8 10 12 9 10 12 12 10 8 9 9 8
20 20 20 20 19 18 17 17 17 17 17 15 17 19 19 19 18 16 14 14 8 7 6 5 5 6 6 4 8 11 13 14 12 11 12 14 15 12 10 11 10 11 10 9 9 7 8 8 2 6 8 9 7 6 6 9 7 8 6 5 5 7 7 7 3 11 11 9 5 13 6 4 12 10 10 6 9 11 12 11 10 10 10 9 8 10 9 10
19 20 20 19 19 18 18 18 17 18 17 16 15 16 18 21 18 13 8 6 5 6 7 8 8 8 12 14 11 14 9 9 8 12 13 10 16 15 12 11 9 12 8 9 9 11 7 6 4 5 6 10 9 10 11 16 12 7 4 5 4 4 9 10 9 6 13 17 11 10 5 13 12 10 9 9 5 10 10 10 11 12 11 10 8 9 9 10
20 19 20 19 18 18 18 17 17 17 16 14 16 18 20 21 9 5 8 4 5 2 1 5 7 6 5 4 15 13 6 10 9 12 13 12 13 13 12 12 12 9 9 8 7 11 5 5 5 5 11 13 17 16 14 5 6 7 6 7 5 7 8 11 14 8 15 13 15 9 10 13 13 10 9 9 7 11 10 10 10 10 9 8 8 8 7 6
19 20 19 19 18 18 18 17 17 17 16 9 7 8 6 1 2 3 5 7 10 10 8 5 13 11 17 18 12 9 9 12 7 5 5 11 12 14 15 12 12 11 9 10 8 13 4 8 10 15 17 18 15 12 9 9 9 8 8 7 12 10 6 10 12 8 15 11 14 10 14 15 14 13 11 12 9 10 11 11 10 10 9 8 7 6 5 5
20 19 19 18 18 18 18 17 17 16 14 7 8 7 4 6 7 4 3 7 14 15 17 18 13 16 15 14 16 13 11 11 11 7 10 3 3 15 11 12 11 9 10 11 8 7 9 9 15 18 13 11 12 11 10 10 16 12 8 9 11 13 10 9 13 12 15 10 11 8 16 10 11 11 11 11 13 12 13 12 12 11 9 7 8 8 6 6
19 19 19 20 18 18 17 17 16 14 10 4 6 7 7 8 7 2 3 6 8 13 18 19 16 17 13 18 20 13 12 11 16 14 6 6 3 6 9 12 12 10 8 10 9 8 13 18 21 14 9 8 9 12 12 12 14 14 9 10 9 12 10 11 11 11 15 11 7 18 15 11 10 9 9 9 10 9 10 12 14 14 10 7 7 9 8 7
20 19 20 20 20 18 16 15 12 8 5 4 5 8 9 7 6 2 3 6 12 11 13 15 18 19 18 15 15 8 14 12 10 12 7 9 7 9 6 10 9 8 10 13 13 12 13 19 12 9 8 11 11 13 14 14 13 10 10 4 10 10 12 10 15 8 16 10 11 16 16 8 8 6 7 5 8 9 8 10 11 11 12 9 10 10 11 10
20 20 20 20 19 17 15 13 10 7 5 9 8 10 7 4 1 4 1 4 8 10 13 13 14 14 15 16 6 11 15 9 9 13 12 13 11 8 9 10 10 10 11 17 18 14 15 1 9 8 11 13 13 12 14 12 11 13 12 9 6 10 14 14 10 5 18 10 22 18 12 6 3 8 3 3 5 9 8 11 11 7 6 7 7 6 9 11
20 20 20 20 19 17 14 13 5 4 3 4 8 1 3 4 1 0 2 4 5 9 11 16 10 12 14 11 11 12 8 11 14 13 6 10 12 9 10 6 7 11 12 15 16 14 11 7 13 14 14 16 15 13 16 13 11 10 13 12 10 9 9 14 13 8 10 9 12 21 6 2 3 6 7 3 4 8 8 12 11 11 10 10 10 9 7 6
19 19 20 20 19 15 14 6 1 6 6 4 2 4 3 2 2 0 1 1 7 6 7 7 10 11 8 13 10 11 12 12 12 13 13 6 8 9 6 8 7 12 15 13 14 8 7 10 16 19 16 15 16 11 14 14 11 8 10 11 14 16 11 9 16 7 10 12 9 9 11 3 3 7 7 5 7 7 8 10 11 12 11 9 9 8 8 7
20 19 20 19 17 12 5 2 7 9 7 2 3 6 4 2 2 0 3 2 4 3 8 4 9 1 9 14 13 9 10 11 9 12 13 10 7 6 9 9 8 8 8 5 5 10 9 13 15 16 14 13 12 14 13 17 12 12 9 8 14 14 13 15 11 10 5 5 12 5 8 9 6 8 8 9 9 9 8 10 12 12 11 10 9 7 8 9
20 19 19 18 15 9 3 7 8 6 5 4 3 5 4 1 2 1 1 3 3 6 3 1 5 6 8 10 15 12 7 3 8 11 12 10 7 10 9 11 11 12 12 9 12 8 14 13 17 16 14 12 14 15 12 16 14 9 9 12 9 11 15 15 7 8 10 14 9 3 9 6 3 4 8 11 9 9 10 10 13 13 12 11 11 10 9 8
20 20 19 17 16 15 7 5 5 7 4 5 3 3 2 2 2 1 1 4 3 2 2 4 5 7 5 11 14 13 10 11 8 8 11 12 13 8 8 12 9 10 14 13 7 5 10 10 14 13 12 13 12 13 13 13 14 13 12 9 10 12 9 6 3 3 5 11 8 8 11 6 3 6 8 6 6 10 10 11 12 15 14 12 11 11 10 8
20 20 20 17 11 7 3 4 6 9 7 6 3 2 3 1 1 1 1 4 3 3 7 5 4 4 4 8 11 12 13 11 10 2 12 9 10 15 13 5 9 8 13 14 14 8 9 11 9 12 14 11 9 11 17 14 15 8 14 10 12 12 5 3 2 5 2 6 10 16 13 10 4 9 13 11 12 15 10 9 10 14 12 11 11 13 11 10
21 21 19 15 5 3 6 5 1 1 2 4 3 3 1 1 2 2 3 2 2 2 3 2 7 8 10 8 10 14 14 13 13 11 8 11 11 12 9 8 8 7 6 10 11 13 12 14 12 9 12 10 9 12 15 14 8 13 8 11 6 5 2 3 2 1 8 8 7 11 8 12 7 7 9 14 11 14 17 18 16 17 17 14 11 11 11 11
22 22 19 11 8 6 5 3 0 0 2 4 1 3 2 2 2 3 2 3 2 1 1 3 7 7 9 12 11 14 12 13 13 11 9 10 7 10 10 7 6 5 7 7 10 11 12 15 11 11 12 16 14 11 12 14 10 11 11 10 7 2 3 6 1 4 4 4 3 5 5 2 6 10 17 15 11 17 16 17 20 20 18 15 13 13 12 10
22 22 24 12 10 6 8 10 5 2 4 2 1 2 1 2 5 5 3 0 2 1 1 4 6 10 8 10 8 12 14 12 13 13 11 13 8 10 12 14 9 7 4 9 10 10 7 13 17 11 12 13 11 12 10 11 11 13 15 7 7 5 8 5 2 2 2 4 3 8 5 5 2 2 20 18 16 20 18 17 20 21 20 17 15 13 11 10
23 23 10 6 5 7 6 5 5 4 1 0 1 1 2 4 5 3 4 4 3 0 4 5 6 8 9 6 6 9 11 14 12 11 13 9 11 7 11 15 14 8 5 4 7 9 7 13 15 13 9 14 13 12 12 10 12 15 10 8 4 4 4 5 2 3 4 2 1 2 3 2 4 5 20 23 18 14 12 16 16 16 16 15 13 11 10 11
26 20 8 4 5 7 9 9 3 3 2 1 0 2 4 6 4 2 2 0 1 5 8 6 7 7 7 7 13 13 8 5 16 13 14 11 10 8 10 11 16 12 8 4 5 3 7 3 10 16 6 18 16 13 10 10 5 12 4 4 4 6 6 5 3 2 1 1 1 1 3 1 1 5 4 9 14 16 18 19 18 16 14 14 13 13 13 11
16 5 3 3 3 5 8 5 5 3 3 1 1 5 7 3 2 2 1 3 2 4 9 13 10 6 5 6 8 11 12 6 12 10 10 11 11 10 11 9 12 18 8 5 3 4 8 5 10 15 10 22 17 10 10 8 9 11 7 7 7 4 7 4 1 2 4 3 3 2 4 3 2 8 9 13 15 17 19 19 18 17 17 16 15 15 14 13
6 7 4 3 7 7 8 6 7 5 3 2 4 6 5 7 9 7 4 2 2 5 4 4 1 5 5 5 4 9 11 7 7 7 6 9 7 12 11 12 13 13 17 7 6 4 7 4 11 16 12 16 21 13 13 7 4 5 7 6 3 4 2 7 3 1 3 4 4 5 6 4 5 2 1 13 15 16 18 19 19 19 19 17 15 15 15 15
8 6 8 9 8 4 8 8 8 4 2 3 7 12 5 8 3 6 1 2 3 3 4 1 4 8 4 3 5 9 11 9 6 8 5 9 3 14 12 12 16 14 17 18 2 7 3 2 11 15 11 4 2 2 9 7 5 6 8 4 6 7 7 2 5 5 6 5 1 3 10 6 7 8 6 12 16 17 17 18 18 19 18 17 15 16 15 15
5 4 5 5 5 9 8 7 4 2 3 5 5 7 3 9 7 4 1 6 6 7 5 4 1 4 4 4 4 8 10 9 7 6 7 7 5 14 16 10 11 17 15 13 9 3 4 2 0 3 8 3 2 4 7 5 4 6 5 9 6 3 3 3 4 3 8 2 3 3 10 3 4 12 16 17 17 20 18 17 20 21 19 17 17 17 17 17
3 3 2 4 7 8 7 6 2 2 2 6 3 7 3 5 8 8 9 8 5 3 3 6 6 4 6 5 8 7 11 12 10 6 5 7 5 11 19 13 4 12 15 14 3 1 3 1 1 2 3 2 3 4 5 6 5 9 5 4 5 1 3 5 1 5 6 3 6 2 3 2 6 13 19 17 20 21 22 19 17 17 17 19 20 19 17 16
4 2 2 5 7 7 8 5 2 4 4 3 3 5 5 3 5 8 10 11 8 6 7 6 6 2 3 6 9 11 5 8 8 4 5 9 9 6 16 14 10 8 14 14 5 2 2 4 5 0 1 2 5 3 4 5 7 3 4 3 6 6 2 3 3 0 2 4 3 4 5 3 3 12 15 18 20 21 22 21 18 17 19 18 17 16 17 16
4 3 1 6 7 6 6 1 4 3 3 6 4 1 4 4 7 12 10 10 10 6 6 7 8 8 7 7 9 8 5 7 8 4 5 7 11 7 8 20 15 7 5 2 3 2 4 1 6 6 6 9 9 7 8 9 13 5 7 4 3 3 3 2 3 5 1 1 4 6 3 3 3 4 12 17 18 21 20 20 18 17 19 18 16 15 14 16
3 5 2 7 6 7 3 5 3 3 4 4 4 9 11 9 5 6 7 4 5 7 5 6 7 3 8 8 7 8 8 4 7 3 7 9 9 13 6 15 18 11 10 1 6 3 3 1 5 3 3 4 8 6 13 12 4 6 5 4 7 6 5 5 3 5 4 2 3 1 4 2 5 0 8 17 19 19 19 21 20 17 15 16 17 17 17 16
4 5 2 3 4 3 1 4 4 2 5 6 7 12 8 8 5 5 4 5 3 5 4 4 5 11 9 8 8 8 9 2 7 4 7 8 6 14 11 15 18 7 8 2 4 2 0 3 7 8 2 2 8 3 4 6 4 2 3 3 7 8 6 5 1 2 5 3 8 6 3 2 1 7 11 14 14 15 16 15 20 18 14 16 17 16 15 16
6 3 4 3 3 3 3 1 2 7 6 8 9 9 5 3 7 12 7 5 6 6 3 3 7 5 9 8 12 10 10 6 1 10 4 7 4 11 11 15 12 3 7 5 10 5 3 2 3 6 8 6 10 10 11 8 8 2 2 3 4 2 7 8 6 1 3 3 6 4 1 2 1 4 16 18 18 15 15 16 15 20 20 17 16 16 16 16
3 5 1 2 3 4 4 4 5 4 5 6 10 6 6 5 4 8 11 8 4 5 4 8 10 10 8 8 5 7 10 8 5 1 6 7 5 8 9 13 10 7 7 10 12 4 1 2 1 2 5 4 3 1 1 0 1 4 5 4 3 6 2 3 7 5 6 2 1 3 9 4 5 9 11 14 16 17 15 15 16 14 15 17 17 16 16 16
2 2 4 5 2 5 6 5 4 2 3 5 5 5 5 8 6 1 7 2 1 2 4 5 5 4 4 4 6 8 9 11 9 8 4 5 5 4 11 11 16 10 11 3 5 1 0 2 3 1 1 3 6 4 4 5 3 3 3 3 3 6 4 2 5 6 6 5 1 1 9 8 3 12 12 13 12 14 15 15 14 14 15 16 16 16 16 15
3 2 4 2 5 6 8 3 3 4 6 5 5 4 7 7 4 1 1 2 3 3 2 5 7 10 15 16 4 3 4 5 6 2 3 3 2 7 10 11 5 10 12 3 6 2 3 3 2 2 4 5 5 7 8 9 5 4 4 4 5 8 4 4 2 6 7 5 2 4 9 12 6 9 16 12 13 17 18 17 16 16 16 15 17 18 18 17
1 3 4 6 6 6 7 14 13 12 10 3 3 3 5 8 7 3 1 4 5 3 5 3 6 10 7 3 2 4 5 3 4 3 2 1 3 4 5 8 9 12 10 8 8 1 2 3 2 0 4 8 12 12 13 14 8 5 7 5 7 9 5 5 1 1 5 4 9 9 5 10 6 5 6 15 17 14 12 13 13 16 18 19 19 18 19 19
5 6 6 3 5 10 9 8 8 5 1 2 1 5 5 4 8 8 4 2 3 3 3 2 9 12 10 8 8 4 1 3 5 4 2 2 2 2 2 3 6 12 8 7 3 2 5 3 2 2 2 3 3 1 20 18 13 7 10 7 5 7 5 4 3 2 5 1 8 11 8 6 3 8 10 10 13 13 14 17 18 16 17 19 19 19 19 19
4 4 6 9 12 6 9 8 6 7 2 2 2 5 4 5 7 10 7 2 4 1 4 8 7 10 11 1 11 5 6 9 4 6 5 1 5 1 1 1 3 4 5 2 2 1 4 2 1 2 1 4 3 8 3 5 4 7 7 9 6 6 4 1 4 3 2 3 7 7 7 7 2 6 14 16 16 18 17 15 14 13 16 17 17 17 17 17
5 5 7 5 5 6 9 11 9 5 5 8 5 5 3 5 9 7 5 1 5 7 5 6 4 5 6 2 5 3 7 8 9 8 5 7 5 3 2 1 7 5 3 1 2 2 2 1 2 2 5 2 6 5 5 8 3 4 4 5 5 1 2 1 3 4 4 5 5 5 5 6 10 11 12 12 16 15 16 16 14 14 16 17 18 18 18 17
Wind_Direction
346 344 341 337 337 333 329 329 325 325 326 328 328 328 326 324 325 327 324 324 318 313 310 307 303 303 309 310 314 318 324 317 307 302 286 249 239 238 258 162 155 138 188 214 259 263 276 253 242 220 229 217 213 234 237 243 225 215 210 207 241 224 229 216 238 226 231 244 246 246 202 253 160 234 45 80 79 70 64 61 61 55 83 113 119 127 134 137
344 342 341 339 336 336 333 329 325 323 323 322 326 324 325 324 324 324 328 327 326 317 312 307 304 302 306 313 316 322 327 307 297 282 257 250 234 239 250 212 166 151 112 246 237 242 246 248 229 209 219 223 193 225 199 232 214 207 211 196 229 219 237 239 238 236 253 258 258 142 40 28 359 278 28 69 177 120 73 45 82 81 90 100 116 130 134 135
341 339 339 338 337 336 335 333 328 325 323 320 319 323 323 322 322 322 323 324 323 323 315 311 306 303 305 312 318 330 325 306 294 268 263 253 241 233 236 245 184 160 165 238 233 240 238 245 233 197 216 230 205 222 195 228 226 222 209 223 225 218 237 242 249 257 240 242 69 59 35 358 323 313 149 91 161 117 122 121 92 112 118 123 126 132 134 136
339 338 336 336 334 333 333 333 331 326 325 322 317 319 319 321 321 322 322 324 322 321 318 312 309 305 306 311 326 328 310 303 278 227 53 181 116 160 195 180 175 177 192 241 264 272 293 311 312 255 200 218 218 218 205 210 212 200 225 226 212 204 237 246 255 256 264 271 175 136 142 38 302 302 196 263 317 200 161 156 138 142 140 137 138 138 140 141
336 336 335 334 334 332 330 332 330 329 325 323 321 316 318 316 320 320 322 322 323 322 322 315 309 305 307 312 323 331 312 309 276 71 163 141 132 134 148 159 166 197 198 239 259 257 265 271 280 288 239 197 225 204 228 212 215 241 223 229 229 231 217 227 244 256 251 263 270 166 156 168 313 340 337 17 334 248 172 180 140 147 146 146 144 142 140 145
335 334 334 333 333 331 329 328 328 326 326 323 319 317 315 315 314 316 318 321 322 322 321 320 312 307 305 310 311 303 312 203 20 106 197 210 164 161 156 162 181 197 204 227 224 244 249 257 241 250 243 211 199 218 208 224 189 235 244 222 218 237 255 253 238 242 259 290 299 131 78 93 83 312 6 13 325 131 133 146 145 138 133 126 126 136 142 151
333 333 332 332 331 330 328 326 324 324 324 322 319 317 315 313 312 313 317 318 318 321 318 319 316 309 310 323 298 273 244 271 305 234 266 198 215 170 175 161 155 182 204 211 221 229 226 244 237 232 248 229 216 212 226 211 219 220 237 219 220 214 238 258 262 269 287 79 23 338 39 29 12 326 51 67 69 65 69 75 68 87 112 123 128 138 149 157
332 332 330 330 329 328 327 326 323 322 322 321 318 317 313 312 312 310 313 316 317 316 318 316 317 311 313 315 326 295 260 244 254 273 246 237 214 213 171 169 160 178 187 210 212 222 234 232 228 233 243 227 200 219 206 233 219 224 229 228 229 214 223 237 259 264 266 273 144 90 331 296 332 198 71 12 71 79 82 84 83 46 16 15 83 133 147 130
332 329 330 328 328 327 327 326 323 322 321 319 320 317 313 310 310 308 306 314 315 314 313 314 312 310 310 292 287 294 254 238 257 284 358 301 240 224 191 215 179 182 196 207 229 232 215 242 241 233 244 233 234 220 222 219 232 223 224 228 226 241 239 222 247 257 252 148 118 98 221 298 283 74 52 14 52 83 92 93 110 116 112 89 31 8 340 58
330 331 329 327 326 327 325 325 323 322 321 320 318 318 314 310 307 306 306 305 312 311 309 311 309 312 305 275 275 273 269 217 247 8 338 340 326 334 314 281 257 195 203 204 221 233 227 233 238 245 258 278 260 234 219 224 233 204 225 233 227 218 241 262 261 264 250 180 164 174 177 209 236 233 101 311 97 100 93 96 90 102 116 123 121 108 45 11
330 330 328 326 325 324 324 323 322 321 322 321 320 318 315 310 305 302 303 303 305 308 308 304 308 306 275 258 247 248 287 309 338 340 323 309 313 310 292 305 297 259 212 208 215 224 244 249 253 268 265 245 289 257 233 226 237 252 225 219 228 242 222 241 254 260 264 221 171 160 174 177 239 155 134 160 120 104 102 105 107 108 110 113 101 82 79 45
329 327 324 324 323 322 322 320 320 319 319 321 321 317 314 310 306 302 298 300 302 305 304 308 311 304 271 260 245 235 306 305 311 302 303 301 306 301 305 301 292 290 282 235 206 218 228 244 251 254 247 130 238 290 269 252 239 242 244 246 218 219 235 220 240 251 247 296 169 116 101 277 234 84 144 104 135 112 105 103 105 107 112 117 113 118 131 134
326 324 323 324 322 319 318 317 317 318 317 319 319 316 311 309 306 301 295 294 296 299 304 303 305 284 271 266 246 258 266 275 281 285 287 284 285 281 284 286 283 285 281 283 271 209 215 230 245 257 253 271 274 225 306 236 243 254 256 248 239 222 225 220 231 240 232 177 146 116 239 193 68 136 102 137 130 109 104 114 120 121 123 118 115 117 109 105
324 320 319 319 320 319 317 315 315 315 316 316 316 314 310 305 304 299 295 289 290 292 295 298 291 275 265 257 295 277 285 272 276 280 275 281 281 281 272 267 269 264 261 273 265 282 231 216 239 249 267 256 258 293 261 265 240 231 243 244 223 218 243 208 215 222 243 164 171 121 188 97 120 107 146 152 157 116 115 124 119 111 100 94 95 102 89 39
324 321 316 315 317 318 317 316 314 314 314 313 312 313 309 302 296 293 292 292 290 290 296 307 275 281 258 270 271 250 241 251 264 263 265 269 274 278 264 266 266 261 259 244 272 262 268 240 218 235 244 244 264 272 281 266 232 223 216 226 230 201 201 222 200 219 214 180 178 161 200 148 144 170 135 130 141 123 120 110 99 93 91 95 93 89 73 57
323 320 317 314 312 313 315 315 313 313 312 311 311 308 304 298 290 286 286 283 283 292 297 279 261 239 278 282 261 301 287 241 238 241 246 243 245 248 265 273 271 258 245 249 250 263 263 267 231 217 246 260 251 242 261 288 252 228 207 206 218 193 208 218 214 215 199 186 177 193 160 126 126 152 119 131 129 117 109 100 93 101 105 101 105 105 115 121
323 322 319 315 310 308 311 312 311 312 312 310 309 304 301 293 285 279 277 275 280 269 252 259 273 226 249 249 294 278 246 241 247 244 234 220 230 235 240 255 261 257 230 239 237 249 247 249 219 228 222 235 226 223 225 244 244 229 204 190 199 191 173 220 265 213 181 185 202 197 165 166 138 144 140 139 131 124 118 113 107 110 112 113 118 129 133 130
325 323 321 317 311 309 308 309 311 311 312 310 311 305 292 283 273 280 279 256 256 255 259 258 269 292 259 234 256 252 246 261 220 234 232 209 208 216 229 235 246 245 221 212 228 234 219 232 215 224 198 222 225 215 202 215 204 201 187 185 216 217 179 192 219 203 178 184 210 190 145 128 128 134 145 139 132 118 120 122 119 120 123 125 134 144 145 150
327 326 323 320 315 310 307 306 308 310 310 316 309 293 283 271 260 232 258 244 207 223 328 210 192 170 234 123 221 241 266 262 273 223 225 217 187 207 211 235 247 238 208 199 192 212 202 241 233 215 210 207 214 213 215 223 211 212 184 175 203 200 204 194 214 215 184 179 202 191 147 141 136 136 141 135 137 117 120 118 116 119 125 139 157 153 139 149
329 327 327 321 318 314 311 307 308 312 314 310 316 313 296 311 133 217 218 231 231 232 256 258 201 241 302 301 302 311 295 243 266 223 244 207 183 190 208 217 230 244 219 196 177 201 182 211 214 214 210 209 215 219 234 229 244 229 207 184 205 221 226 206 215 205 189 182 195 196 130 141 143 144 149 142 133 123 131 135 133 136 144 157 165 134 126 115
329 329 325 320 318 317 312 311 309 311 311 312 308 310 308 326 331 326 12 236 223 230 240 251 239 224 242 275 285 307 334 320 298 284 225 316 256 172 202 201 215 221 223 183 194 164 215 222 230 222 215 209 209 217 232 230 238 239 214 198 198 213 228 216 211 202 187 184 192 133 126 122 135 142 147 138 138 149 148 144 145 143 156 160 152 133 143 122
332 329 325 322 319 316 314 311 310 307 312 291 280 271 279 284 297 138 185 286 265 245 235 243 250 260 246 251 267 287 288 280 291 287 268 185 253 206 180 205 202 212 205 182 192 168 206 220 221 213 209 208 213 215 229 233 236 238 233 197 197 207 226 253 239 198 182 176 157 127 126 133 130 141 145 145 146 155 153 153 154 148 158 157 140 141 145 135
332 329 326 325 323 319 317 311 314 314 296 277 255 262 264 303 11 53 310 277 270 237 246 243 245 243 252 258 263 276 264 249 265 263 246 191 214 232 191 202 210 214 205 195 192 183 205 230 214 199 206 210 216 214 217 236 246 241 235 224 204 188 188 228 245 225 170 177 133 126 111 118 121 121 151 148 145 156 148 141 147 153 156 157 157 154 150 152
330 330 327 327 326 322 319 325 313 296 241 243 247 251 284 322 41 343 28 270 290 266 225 226 227 237 239 239 231 234 246 255 249 263 244 185 207 196 239 207 206 216 217 200 205 202 211 117 177 208 211 211 217 207 211 223 237 239 236 222 236 197 192 209 234 194 167 102 119 100 85 80 129 139 154 164 118 133 131 116 126 125 120 127 128 121 148 158
328 329 329 329 328 325 330 325 301 243 266 279 263 63 337 331 309 156 58 280 248 266 208 230 222 225 226 235 248 250 221 244 246 262 239 184 189 198 221 224 212 220 223 202 209 225 219 183 165 212 218 211 214 202 209 210 234 241 238 230 233 250 206 200 228 134 144 121 142 128 66 166 206 175 169 181 122 135 139 131 135 136 134 145 148 144 129 125
329 328 330 328 329 332 326 298 243 343 300 286 8 14 332 316 30 269 118 237 287 273 149 226 146 223 181 223 213 225 261 253 234 239 255 219 208 214 187 231 205 212 222 203 208 225 213 188 183 202 214 209 206 217 208 212 228 228 235 221 235 245 264 220 214 127 167 150 211 155 136 174 200 191 188 177 155 156 141 138 137 137 144 150 146 134 117 102
328 328 331 332 330 335 323 281 349 325 311 319 3 336 303 324 51 133 71 218 280 230 219 128 148 221 182 197 193 168 219 237 239 241 245 246 249 210 220 215 204 237 219 217 186 209 209 198 195 198 209 204 199 215 213 207 217 233 229 221 225 240 246 257 233 177 187 120 180 169 126 138 176 216 188 172 163 156 153 147 142 144 147 148 147 136 127 157
329 330 333 332 327 330 271 298 308 301 284 290 317 305 292 136 94 41 225 323 251 311 35 17 238 151 207 172 183 197 223 72 196 237 237 248 233 274 250 219 217 206 215 213 216 170 201 200 195 192 198 203 208 210 209 205 213 234 235 231 235 225 236 248 235 177 150 141 196 177 106 85 171 196 155 167 157 164 171 163 145 144 146 146 152 143 150 147
331 332 332 329 325 306 272 239 269 271 291 317 304 313 18 42 224 113 93 265 8 16 219 216 3 141 246 168 185 207 196 245 240 187 214 232 242 245 227 243 251 208 229 233 226 173 200 225 191 201 195 209 209 207 222 202 210 227 240 242 247 244 236 241 235 225 140 130 190 198 162 118 162 165 151 175 171 181 175 164 145 145 150 155 157 149 145 147
330 331 329 327 326 288 247 191 226 249 288 291 305 340 340 353 301 47 148 259 33 313 19 301 298 332 243 186 189 189 210 227 237 231 192 205 226 233 256 268 248 247 220 234 245 210 189 221 213 203 202 207 198 205 218 219 217 207 233 251 243 241 245 254 266 192 109 190 198 191 181 141 155 189 172 164 203 184 151 150 143 141 148 160 158 155 158 156
327 325 324 321 287 296 309 279 231 229 267 262 266 109 52 144 244 287 230 268 300 287 319 145 310 1 349 265 193 187 213 226 231 236 195 201 221 223 225 257 266 259 260 225 232 227 194 194 220 209 201 197 208 205 216 224 207 202 216 232 242 284 303 305 270 67 166 224 199 184 177 166 141 201 207 201 180 159 164 165 148 152 158 165 161 159 158 165
323 316 308 305 267 273 259 245 359 177 243 282 67 47 82 272 193 246 254 93 354 273 66 326 305 343 314 312 285 183 201 213 240 226 213 188 203 200 204 219 181 188 238 204 213 220 207 197 208 209 194 197 194 205 207 219 224 210 213 223 179 200 173 238 45 196 223 201 217 169 190 194 219 175 186 200 170 176 172 161 157 157 160 165 163 163 160 169
318 310 303 290 258 232 241 250 261 253 248 229 66 98 203 272 275 191 262 69 275 63 197 151 286 294 291 309 278 210 187 219 212 236 220 183 213 213 216 216 212 198 175 204 201 200 221 199 199 204 182 207 193 193 186 215 212 213 212 186 174 164 191 216 214 146 357 317 3 154 159 237 178 146 176 180 183 179 168 156 152 155 161 165 163 164 159 161
316 309 297 254 227 217 234 238 227 213 245 284 90 213 232 264 244 261 260 185 225 127 256 229 251 268 270 249 262 223 186 215 215 218 228 174 205 208 215 223 235 211 252 205 214 193 159 194 192 195 187 186 211 202 192 206 189 214 211 178 152 164 162 192 157 154 191 188 261 83 69 252 161 246 180 181 175 154 131 132 139 147 155 156 154 149 145 155
314 303 269 243 226 240 242 237 178 151 166 54 139 249 259 247 249 276 263 262 343 286 259 258 261 294 293 260 258 260 209 191 228 214 194 178 199 215 198 212 217 237 225 189 222 187 217 235 186 204 177 183 207 213 193 187 176 222 185 178 231 233 150 138 193 104 107 118 67 128 147 230 164 300 161 119 116 120 125 131 135 147 152 148 145 152 160 159
310 304 258 198 194 211 216 225 126 116 87 160 248 240 231 230 286 105 258 139 303 290 310 300 269 246 243 258 243 259 199 219 214 215 175 192 199 210 203 206 209 215 212 210 173 168 194 215 171 203 203 182 214 209 220 164 182 198 162 196 204 194 130 100 72 108 96 68 264 167 23 12 347 41 103 121 114 124 132 136 141 149 152 150 155 160 161 154
313 314 299 266 231 201 203 180 132 112 121 208 230 251 238 250 238 283 334 324 322 321 296 296 223 193 200 211 232 235 193 213 244 216 162 185 193 226 207 219 222 208 226 219 176 235 141 229 175 198 193 185 199 208 226 203 161 155 189 217 219 219 109 125 159 134 148 143 243 119 143 177 124 172 248 132 126 133 137 147 150 151 151 156 160 158 155 153
316 300 287 272 266 251 161 142 131 145 182 228 237 250 274 282 245 265 140 254 278 216 270 270 258 242 191 211 211 240 165 198 213 208 140 184 227 206 210 219 218 223 218 228 202 214 195 79 197 205 192 153 88 308 254 297 215 144 206 156 209 173 205 270 108 166 172 185 263 173 156 176 166 156 155 152 145 147 149 151 147 153 158 155 153 151 150 145
280 283 288 319 99 67 79 95 75 97 233 245 237 276 236 245 276 280 60 237 264 276 268 221 278 264 246 197 218 224 197 200 206 203 146 184 221 196 217 209 211 222 225 215 224 231 202 135 255 166 178 136 165 136 193 247 284 228 158 204 185 116 159 141 176 165 121 217 121 283 153 212 201 160 166 168 156 155 152 156 159 162 158 152 152 153 152 152
308 307 288 74 72 83 93 84 85 159 209 249 225 232 298 294 277 269 251 271 291 249 231 272 233 292 306 280 226 212 200 214 196 195 182 161 243 186 214 221 245 219 230 222 218 228 161 109 161 258 175 93 232 177 188 169 182 216 206 211 178 165 185 131 193 163 160 164 170 183 224 252 200 169 168 162 153 160 160 163 160 158 155 156 155 154 155 154
296 273 291 118 103 101 77 71 197 212 236 251 261 269 292 274 303 278 276 265 267 251 263 291 319 318 335 335 282 214 170 217 208 181 166 172 207 165 220 217 222 230 215 215 179 246 61 62 158 164 345 249 238 211 208 203 228 204 151 212 164 146 91 151 274 174 154 118 190 179 237 276 221 166 164 153 160 160 163 157 157 155 155 156 155 154 152 149
307 315 310 103 115 96 88 277 228 214 244 258 254 179 258 260 266 269 268 250 221 249 219 251 259 258 265 254 242 282 189 220 221 178 167 168 217 233 211 219 249 261 250 167 171 339 137 163 103 166 207 208 222 216 221 216 237 198 167 237 174 126 117 114 132 235 172 228 148 149 150 272 259 220 150 153 157 160 158 153 155 153 154 154 152 149 147 148
300 259 156 141 134 112 96 249 226 216 241 260 289 271 252 261 250 291 305 284 209 207 243 240 251 267 232 228 274 254 220 234 222 188 159 182 206 229 220 212 224 244 208 288 106 301 65 82 139 177 215 226 218 227 215 235 227 193 207 195 181 215 159 161 172 185 172 187 181 85 163 261 285 96 155 155 157 155 155 155 150 148 148 147 146 147 146 147
285 287 287 140 143 105 166 289 313 267 275 270 261 268 239 219 236 256 244 278 256 182 227 255 240 216 253 253 268 283 218 192 234 231 161 186 204 216 213 209 217 219 160 229 136 249 136 263 124 156 143 150 184 313 302 255 256 228 168 208 177 193 194 193 56 71 160 225 151 125 178 271 289 107 136 123 136 143 154 153 145 145 145 144 146 147 147 148
281 241 228 149 185 159 222 188 264 302 312 314 316 303 323 230 224 227 200 233 224 238 266 252 249 292 278 280 286 290 248 224 165 237 169 193 173 214 206 215 210 246 173 120 108 216 220 230 94 137 160 165 173 189 201 216 220 262 194 161 192 204 193 191 222 93 143 259 141 113 173 269 351 99 141 148 147 149 149 147 151 150 150 149 147 148 148 149
328 332 318 179 170 217 246 240 250 260 306 321 326 310 323 301 271 208 219 259 221 250 226 270 276 264 266 280 277 285 273 215 253 229 179 196 160 195 202 198 210 213 141 145 136 133 303 310 95 137 145 191 233 321 287 86 84 245 220 178 194 237 192 142 126 102 182 219 98 209 156 164 132 121 155 153 151 146 140 141 148 151 149 149 148 148 151 153
295 337 334 328 276 206 259 267 243 144 278 338 298 325 311 319 308 299 195 288 90 327 272 241 278 343 289 360 284 248 229 143 232 271 196 195 173 171 188 168 199 175 114 138 128 108 37 321 295 18 296 214 170 190 187 200 164 233 196 226 243 228 210 105 158 193 182 88 264 237 138 121 184 127 154 153 155 145 146 152 149 145 146 148 149 148 149 149
333 341 330 36 317 311 320 320 321 254 230 281 271 289 284 307 304 319 296 216 283 285 344 334 14 349 306 273 289 346 19 6 322 259 242 187 127 173 171 190 169 121 118 111 223 174 152 228 273 36 298 281 229 212 173 202 207 193 223 192 224 242 205 169 199 219 116 136 174 215 153 147 208 157 167 163 165 157 161 158 155 148 142 142 146 152 154 154
319 303 274 348 328 283 275 280 283 275 285 264 272 280 294 318 331 343 333 328 344 20 51 310 276 247 295 279 110 1 29 30 298 280 284 255 303 180 168 136 125 147 136 175 217 209 98 258 303 255 293 295 274 229 180 187 194 174 224 217 212 229 186 144 179 286 142 155 147 160 158 166 179 200 138 162 165 152 138 133 134 145 153 153 152 154 156 157
8 343 322 309 241 286 288 294 302 320 83 319 316 276 316 305 319 329 352 79 340 352 351 287 296 336 331 67 53 100 30 198 221 268 270 303 248 91 41 95 152 153 167 191 152 306 100 276 336 5 305 268 287 94 169 177 174 189 213 231 209 205 220 166 172 102 54 62 128 145 135 171 260 118 110 124 123 111 129 144 152 151 150 153 157 160 161 163
322 284 289 309 318 309 319 310 311 337 12 263 198 290 288 308 329 332 308 228 206 299 293 287 329 346 329 102 128 194 177 253 260 256 270 266 179 205 107 227 119 113 169 196 103 342 91 255 8 280 169 296 354 31 18 31 174 182 198 224 205 177 211 205 174 196 116 159 125 125 120 173 146 115 123 131 130 136 143 145 144 154 155 153 156 160 160 163
304 278 301 297 292 307 317 318 311 345 359 345 306 306 191 286 303 289 317 265 2 316 275 275 285 164 219 334 357 322 282 299 301 313 282 308 258 223 243 160 147 149 153 90 88 84 126 91 15 349 63 302 322 15 5 13 43 193 238 226 175 154 138 183 152 129 163 144 112 132 201 226 134 137 120 133 140 144 146 152 154 152 158 159 160 162 164 166